Location: Carri�res
(48.9069°N, 2.1792°E)
Time: 12:46:57
(UTC+00:00)

Cosmos 2228 - Pass Details

Date: 17 January 2021
Orbit: 589 x 617 km, 82.5° (Epoch: 26 February)

Event Time Altitude Azimuth Distance (km) Brightness Sun altitude
Rises 18:01:44 0° 348° (NNW) 2,837 6.4 -15.4°
Reaches altitude 10° 18:03:56 10° 346° (NNW) 1,932 5.6 -15.7°
Maximum altitude 18:08:11 71° 263° (W) 631 3.2 -16.4°
Drops below altitude 10° 18:12:25 10° 180° (S) 1,927 5.7 -17.1°
Sets 18:14:37 0° 178° (S) 2,828 6.6 -17.5°
